Location: ??????????
(44.2167°N, 135.5333°E)
Time: 15:07:47
(UTC+00:00)

SJ 16-02 - Pass Details

Date: 15 June 2025
Orbit: 588 x 596 km, 75.0° (Epoch: 16 July)

Event Time Altitude Azimuth Distance (km) Brightness Sun altitude
Exits shadow 16:21:12 14° 272° (W) 1,691 3.4 -19.8°
Maximum altitude 16:23:06 18° 302° (WNW) 1,496 3.4 -19.7°
Drops below altitude 10° 16:26:03 10° 346° (NNW) 1,941 4.7 -19.5°
Sets 16:28:56 0° 6° (N) 2,847 6.2 -19.3°
